UNICORN-2M

导读 | 星芒AI

UNICORN-2M 是一颗由日本研发的小型卫星,主要用于地球观测和通信实验。该卫星搭载了高分辨率光学传感器,能够获取地表图像,支持环境监测、灾害评估和资源管理等应用。此外,UNICORN-2M 还测试了新型通信技术,旨在提升卫星数据传输的效率和稳定性。作为一颗技术验证卫星,它为未来更复杂的卫星任务奠定了基础,并推动了日本在小型卫星领域的创新发展。

基本信息
目录编号:
58726
目录名称:
UNICORN-2M
国际标识:
2023-185Q
轨道中心:
EARTH
卫星名称:
UNICORN-2M
卫星全名:
UNICORN-2M
卫星状态:
在轨 (已飞行745 天)
发射日期:
2023-12-01 UTC
国别 :
(TBD)
星等 :
--
轨道信息
数据来源 国际轨道数据
星历时间: 2025-12-15T05:36:26+0800
20小时前
查看轨道信息
半长轴: 6773.303km
偏心率: 0.0004755
轨道倾角: 97.566°
近地点辐角 195.416°
升交点赤经 71.340°
平近点角 164.695°
近地点: 391.947km
远地点: 398.389km
周期: 92.461分钟
每日圈数: 15.574066
详细信息
使用方式:
暂无
2D轨道图
3D轨道图
轨道高度分析图
轨道倾角分析图
轨道综合分析图
查看轨道综合分析图